sat.trackr.live / text

‹ back to catalog

PRAETORIAN SDA_617

NORAD 65580 · 2025-203R

PAYLOAD ACTIVE UNKNOWN

§ Identity

Operator
Country
US
Launch date
2025-09-10
Launch site
AFWTR
Launch vehicle
Mass (kg)
RCS (m²)

Purposes: military

External: N2YO · Heavens-Above · Gunter

§ Orbital elements

Epoch: 2026-05-25T03:30:21.528864Z

Period
104.11 min
Inclination
81.3054°
Eccentricity
0.0006414
Mean motion
13.83148021 rev/d
Perigee alt
948.0 km
Apogee alt
957.4 km
Semi-major
7,330.9 km
B*
7.8443e-5
RAAN
32.2068°
Arg perigee
253.7652°
Mean anomaly
106.2799°
Rev number
3,550

§ Raw data

PRAETORIAN SDA_6171 65580U 25203R   26145.14608251  .00000098  00000+0  78443-4 0  99972 65580  81.3054  32.2068 0006414 253.7652 106.2799 13.83148021 35501

JSON: /api/v1/satellites/65580 · /tle

For live sub-satellite position, see the globe view (requires WebGL).

§ Visibility from observer

Set your observer location to see the next 7 days of passes ≥ 10°. The values pass through the URL so the page stays shareable.

No JS? Fill the form by hand. The geolocation button needs JavaScript.